Вернуться в каталог

COSMOS 400

АктивенВоенныеLEO
NORAD 5050·PAYLOAD·🇷🇺 Russia

Запущен Mar 18, 1971 с Plesetsk Cosmodrome

Loading…

Ближайшие Пролёты (ближайшие 24 часа)

TLE

СвежийSource: Space-Track

Эпоха: Sep 14, 2026, 22:49 UTC

1 05050U 71020A   26257.95099164 -.00000056  00000-0  26941-4 0  9993
2 05050  65.8270 331.7985 0003797 256.1846 282.4182 13.72206731780266

Отслеживайте COSMOS 400 в реальном времени с AllMySat

Download on the App Store